Weather in Polanica-Zdroj

Poland     50°24′18″N   16°30′53″E
temp.,
°C
wind,
m/s
gust,
m/s
humid.,
%
clouds,
%
prec.,
mm/h
press.,
hPa
HPBL,
m
9 may, sun
sun923:00+3s2273100 0.0 102019
02:00+3ssw237780 0.0 101943
05:00+3ssw33885 0.0 101840
08:00+9ssw37675 0.0 1017310
11:00+15ssw585626 0.0 1016662
14:00+17s8105768 0.0 1015973
17:00+17ssw711636 0.0 1014886
20:00+12s5137252 0.0 1014454
10 may, mon
mon1023:00+10ssw4117131 0.0 1015342
02:00+9ssw412685 0.0 1013326
05:00+8s396740 0.0 1013231
08:00+13s717645 0.0 1012942
11:00+16s9136222 0.0 1011892
14:00+18s810615 0.0 1012976
17:00+19s69660 0.0 10121096
20:00+15s37817 0.0 1012202
11 may, tue
tue1123:00+12se248780 0.0 101265
02:00+12sse36869 0.0 1010169
05:00+10sse12885 0.0 100950
08:00+16s5126977 0.0 1008871
11:00+18s8126476 0.0 1008962
14:00+21s912615 0.0 10071428
17:00+20sse7126847 0.0 10071484
20:00+17sse497869 0.1 1007326
12 may, wed
wed1223:00+14sse37835 0.0 1006201
02:00+13se3586100 0.0 1005158
05:00+12sse229012 0.0 100538
08:00+17s24739 0.0 1004384
11:00+20sse35555 0.0 10041404
14:00+21sse245766 0.8 10031425
17:00+19ese1373100 4.4 1002492
20:00+14w1190100 11.4 100214
13 may, thu
thu1323:00+12nw1198100 4.8 100233
02:00+11nne4796100 5.8 1002445
05:00+9ne3696100 0.1 1002403
08:00+9ne3695100 0.2 1002544
11:00+10ne3585100 0.1 1002709
14:00+11ne2477100 0.1 1003969
17:00+11nne2482100 0.1 1003556
20:00+10nne1290100 0.2 100451